Location: Braunsdorf
(50.7357°N, 11.9136°E)
Time: 18:17:17
(UTC+00:00)

Cosmos 1725 Rocket - Pass Details

Date: 17 February 2020
Orbit: 963 x 989 km, 82.9° (Epoch: 31 March)

Event Time Altitude Azimuth Distance (km) Brightness Sun altitude
Rises 05:17:16 0° 349° (N) 3,679 6.8 -10.8°
Reaches altitude 10° 05:19:47 10° 348° (NNW) 2,732 6.2 -10.4°
Maximum altitude 05:26:03 80° 263° (W) 1,000 4.0 -9.4°
Drops below altitude 10° 05:32:18 10° 178° (S) 2,732 6.5 -8.5°
Sets 05:34:49 0° 177° (S) 3,679 7.2 -8.1°
